Regional Weather Roundup
Issued by NWS

Home | Current Version | Previous Version | Text Only | Print | Product List | Glossary On
Versions: 1 2 3 4 5 6 7 8 9 10 11 12 13 14 15 16 17 18 19 20 21 22 23 24 25 26 27 28 29 30 31 32 33 34 35 36 37 38 39 40 41 42 43 44 45 46 47 48 49 50
000
ASUS46 KLOX 241812
RWRCA

SOUTHERN CALIFORNIA WEATHER ROUNDUP
NATIONAL WEATHER SERVICE OXNARD CALIFORNIA
1100 AM PDT FRI OCT 24 2014

NOTE: "FAIR" INDICATES FEW OR NO CLOUDS BELOW 12,000 FEET WITH NO
SIGNIFICANT WEATHER AND/OR OBSTRUCTIONS TO VISIBILITY.

  -  STATIONS PRECEEDED BY AN ASTERISK (*) ARE NOT NWS OR FAA
     STATIONS AND ARE NOT SUBJECT TO NWS AND FAA QUALITY CONTROL.

CAZ041-042-087-241900-
LA AND ORANGE COUNTY COASTAL AREAS


CITY           SKY/WX    TMP DP  RH WIND       PRES   REMARKS
L.A. DOWNTOWN  SUNNY     81  47  30 CALM      29.98S
L.A. AIRPORT   SUNNY     78  54  43 CALM      29.99S
LONG BEACH     SUNNY     78  57  48 CALM      29.99S

CITY           SKY/WX    TMP DP  RH WIND       PRES   REMARKS
AVALON           N/A    N/A N/A N/A MISG        N/A
FULLERTON      SUNNY     81  44  27 S5        29.98S
*GETTY CENTER    N/A     79  45  29 E3          N/A
HAWTHORNE      SUNNY     78  50  37 E5        29.99F
*LOS ALAMITOS  SUNNY     77  59  53 VRB2      29.99F
*REDONDO BEACH   N/A     78  64  61 SW3       29.98S
SANTA ANA      SUNNY     81  51  35 CALM      29.99S
STA MONICA APT SUNNY     81  45  28 VRB3      29.99F
TORRANCE       SUNNY     81  55  41 VRB7      30.00
*UCLA            N/A     81  43  26 SE3       29.97S

$$

CAZ547-548-048-241900-
LA COUNTY VALLEYS AND INLAND EMPIRE


CITY           SKY/WX    TMP DP  RH WIND       PRES   REMARKS
BURBANK        SUNNY     80  41  24 SE3       30.00F
VAN NUYS       SUNNY     80  39  23 CALM      30.00F

CITY           SKY/WX    TMP DP  RH WIND       PRES   REMARKS
CORONA AIRPORT PTCLDY    79  46  31 CALM      30.01F
*CHATSWORTH      N/A     81  47  29 E1        29.97F
CHINO          SUNNY     80  43  26 S3        30.02F
MARCH AFB      SUNNY     82  37  19 VRB1      30.04F
*NORTHRIDGE      N/A     81  34  18 E2          N/A
ONTARIO        SUNNY     83  36  18 CALM      30.01F
*PASADENA        N/A     82  45  26 E2          N/A
RIVERSIDE      SUNNY     82  38  20 CALM      30.01F
SAN BERNARDINO SUNNY     82  32  16 W9        30.03
*SAN GABRIEL     N/A     82  41  23 CALM      29.95S
*WHITEMAN AP   SUNNY     79  37  22 CALM      30.04F
*WOODLAND HILL   N/A     81  39  22 W1          N/A

$$

CAZ054-055-241900-
LA AND SAN BERNARDINO COUNTY MOUNTAINS


CITY           SKY/WX    TMP DP  RH WIND       PRES   REMARKS
*BIG BEAR AIRP CLEAR     66  23  19 W5        30.33S
MT WILSON NWS    N/A    N/A N/A N/A MISG        N/A
SANDBERG       SUNNY     76   8   7 S16       30.19S

$$

CAZ028-029-059-060-099-241900-
ANTELOPE VALLEY AND SURROUNDING AREAS


CITY           SKY/WX    TMP DP  RH WIND       PRES   REMARKS
LANCASTER      SUNNY     70  28  21 E3        30.10S
PALMDALE       SUNNY     72  30  21 N3        30.10S

CITY           SKY/WX    TMP DP  RH WIND       PRES   REMARKS
29 PALMS       SUNNY     78  38  23 CALM      30.15F
BARSTOW/DAGGET SUNNY     77  32  19 NE5       30.08F
BISHOP         SUNNY     68  25  19 CALM      30.12F
CHINA LAKE     SUNNY     74  27  17 CALM      30.09F
EDWARDS AFB    SUNNY     68  26  21 N5        30.08F
MOJAVE         FAIR      72  28  20 CALM      30.11F
NEEDLES        SUNNY     82  39  21 E3        30.05F
VICTORVILLE    SUNNY     79  28  15 NE6       30.10F

$$

CAZ039-040-241900-
VENTURA AND SANTA BARBARA COUNTY COAST


CITY           SKY/WX    TMP DP  RH WIND       PRES   REMARKS
CAMARILLO      SUNNY     75  53  46 VRB3      29.98F
NWS OXNARD       N/A     75  52  43 CALM      29.98F
OXNARD AIRPORT SUNNY     75  51  43 CALM      29.98F
*POINT MUGU    MOSUNNY   73  57  56 S7        29.99F
SBA APT/GOLETA SUNNY     72  62  71 SE6       29.99R
*SANTA BARBARA   N/A     74  59  58 CALM      30.06F
*VENTURA         N/A     72  43  35 E3        30.02S

$$

CAZ044-045-241900-
VENTURA COUNTY VALLEYS


CITY           SKY/WX    TMP DP  RH WIND       PRES   REMARKS
*SIMI VALLEY     N/A     81  43  25 E3        29.95F
*OJAI            N/A     85  43  22 W2        29.93F
*FILLMORE        N/A     81  45  28 CALM      29.89F

$$

CAZ053-241900-
VENTURA COUNTY MOUNTAINS


CITY           SKY/WX    TMP DP  RH WIND       PRES   REMARKS
*LOCKWOOD VLY    N/A     70  12  11 MISG        N/A
*ROSE VALLEY     N/A     79  27  14 MISG        N/A

$$

CAZ034-035-036-241900-
CENTRAL COAST AND SANTA YNEZ VALLEY


CITY           SKY/WX    TMP DP  RH WIND       PRES   REMARKS
SAN LUIS OBISP MOSUNNY   59  55  87 CALM      30.00F
SANTA MARIA    SUNNY     62  52  69 CALM      30.00F

CITY           SKY/WX    TMP DP  RH WIND       PRES   REMARKS
*CAL POLY SLO    N/A     59  57  94 CALM        N/A
*LOMPOC        SUNNY     61  52  72 CALM      30.00F
*PISMO BEACH     N/A     61  56  86 SW2       30.00F
*SANTA YNEZ    FAIR      72  41  33 CALM      29.98F

$$

CAZ037-038-051-241900-
SAN LUIS OBISPO COUNTY INTERIOR AND CUYAMA VALLEY


CITY           SKY/WX    TMP DP  RH WIND       PRES   REMARKS
*CUYAMA          N/A     73  37  27 W2        29.95F
PASO ROBLES    SUNNY     65  42  43 CALM      29.99F

$$

CAZ032-033-061-241900-
SOUTHERN DESERTS


CITY           SKY/WX    TMP DP  RH WIND       PRES   REMARKS
BLYTHE         SUNNY     82  46  28 CALM      30.01F
IMPERIAL       SUNNY     84  48  28 NW5       29.98S
PALM SPRINGS   SUNNY     89  36  15 CALM      30.01F
THERMAL        SUNNY     87  41  19 CALM      29.96F

$$

ELSEWHERE ACROSS THE WESTERN UNITED STATES AND MEXICO


CITY           SKY/WX    TMP DP  RH WIND       PRES   REMARKS
DENVER, CO     PTSUNNY   75  22  13 VRB5      30.19F
GRAND CANYON,  SUNNY     70  31  23 SW7       30.39S
HONOLULU, HI   MOSUNNY   81  72  74 NE8       30.03R
KAHULUI, MAUI  MOSUNNY   75  68  78 N3        30.03R
LAKE TAHOE, CA SUNNY     67  21  17 S16G29    30.14F
LAS VEGAS, NV  SUNNY     77  36  22 CALM      30.09F
MAMMOTH LAKES, FAIR      63  21  20 E8        30.24F
MEXICO CITY, M MOSUNNY   66  45  45 N14       30.40F
PHOENIX, AZ    SUNNY     86  49  27 E7        30.05F
PORTLAND, OR   CLOUDY    54  51  90 NW5       29.98F
RENO, NV       SUNNY     57  33  40 CALM      30.08F
SALT LAKE CITY SUNNY     66  41  40 NW5       30.17F
SAN DIEGO, CA  SUNNY     81  43  26 S3        30.00S
SAN FRANCISCO, MOSUNNY   68  59  73 E7        29.96F
SAN JOSE, CA   MOSUNNY   64  55  72 CALM      29.96F
SEATTLE, WA    CLOUDY    53  45  74 NE5       30.04F
TIJUANA, MEX   SUNNY     84  36  17 S5        30.02S

$$

STATION/POSITION TIME  TEMP    WIND        PRES    VSBY  WAVE
                       AIR SEA DIR/SP/G                  HT/PER
                 (UTC) (F)     (DEG/KT/KT) (MB)    (MI)  (FT/S)
POINT ARGUELLO B NOT AVBL
WEST SANTA BARBA 1800   62 65  350/  6/  8 1014.7S         9/13
POINT CONCEPTION NOT AVBL
EAST SANTA BARBA 1700   65 69  220/  4/  6 1015.6R
SANTA MONICA BAY 1800   65 69  210/  4/  6 1015.5R         3/12



USA.gov is the U.S. government's official web portal to all federal, state and local government web resources and services.